EW1714 Weather Reports


Display with metric or nautical units.
time (UTC)temp
F
wind
direction
speed
MPH
gust
MPH
rain 1hr
in
rain 24hr
in
rain mn
in
humidity
%
barometer
mb
20260831132003 64 353 0.0 0.0 0.00 0.00 0.00 73 1021.5
20260831131508 64 354 0.0 3.0 0.00 0.00 0.00 75 1021.5
20260831131009 64 353 0.0 3.0 0.00 0.00 0.00 75 1021.6
20260831130507 64 7 0.0 3.0 0.00 0.00 0.00 74 1021.5
20260831130013 63 359 0.0 0.0 0.00 0.00 0.00 75 1021.4
20260831125508 63 359 0.0 0.0 0.00 0.00 0.00 77 1021.4
20260831125009 63 359 0.0 2.0 0.00 0.00 0.00 76 1021.5
20260831124520 62 359 0.0 2.0 0.00 0.00 0.00 79 1021.5
20260831124008 62 342 0.0 3.0 0.00 0.00 0.00 80 1021.5
20260831123511 62 359 0.0 6.0 0.00 0.00 0.00 81 1021.4
20260831123017 61 340 0.0 6.0 0.00 0.00 0.00 83 1021.4
20260831122510 61 1 1.0 6.0 0.00 0.00 0.00 85 1021.4
20260831122010 60 338 0.0 5.0 0.00 0.00 0.00 86 1021.4
20260831121517 60 325 0.0 4.0 0.00 0.00 0.00 88 1021.3
20260831121011 60 360 0.0 3.0 0.00 0.00 0.00 89 1021.3
20260831120503 59 20 0.0 2.0 0.00 0.00 0.00 91 1021.3
20260831120011 59 23 0.0 2.0 0.00 0.00 0.00 91 1021.3
20260831115507 59 149 0.0 0.0 0.00 0.00 0.00 93 1021.2
20260831115005 59 149 0.0 0.0 0.00 0.00 0.00 94 1021.2
20260831114513 58 149 0.0 0.0 0.00 0.00 0.00 94 1021.1
20260831114011 58 149 0.0 0.0 0.00 0.00 0.00 94 1021.0
20260831113512 58 149 0.0 0.0 0.00 0.00 0.00 94 1020.9
20260831113023 58 149 0.0 0.0 0.00 0.00 0.00 94 1020.9
20260831112513 58 149 0.0 0.0 0.00 0.00 0.00 94 1020.9
20260831112010 58 149 0.0 0.0 0.00 0.00 0.00 94 1020.9
20260831111525 58 149 0.0 0.0 0.00 0.00 0.00 94 1021.0
20260831111010 58 149 0.0 0.0 0.00 0.00 0.00 94 1021.0
20260831110510 57 149 0.0 0.0 0.00 0.00 0.00 93 1020.9
20260831110033 58 149 0.0 0.0 0.00 0.00 0.00 93 1020.8
20260831105514 58 149 0.0 0.0 0.00 0.00 0.00 93 1020.7
20260831105003 58 149 0.0 0.0 0.00 0.00 0.00 93 1020.7
20260831104523 58 149 0.0 0.0 0.00 0.00 0.00 93 1020.7
20260831104004 58 356 0.0 0.0 0.00 0.00 0.00 92 1020.6
20260831103511 58 14 0.0 0.0 0.00 0.00 0.00 92 1020.5
20260831103027 58 14 0.0 0.0 0.00 0.00 0.00 92 1020.5
20260831102510 58 14 0.0 0.0 0.00 0.00 0.00 92 1020.5
20260831102010 58 14 0.0 0.0 0.00 0.00 0.00 92 1020.6
20260831101528 58 14 0.0 0.0 0.00 0.00 0.00 92 1020.4
20260831101015 58 14 0.0 0.0 0.00 0.00 0.00 91 1020.3
20260831100512 58 14 0.0 0.0 0.00 0.00 0.00 91 1020.3
20260831100027 58 14 0.0 0.0 0.00 0.00 0.00 92 1020.3
20260831095510 59 14 0.0 0.0 0.00 0.00 0.00 91 1020.2
20260831095010 59 14 0.0 0.0 0.00 0.00 0.00 91 1020.1
20260831094527 59 14 0.0 0.0 0.00 0.00 0.00 91 1020.0
20260831094012 59 14 0.0 0.0 0.00 0.00 0.00 91 1020.0
20260831093514 59 14 0.0 0.0 0.00 0.00 0.00 91 1019.9
20260831093014 59 14 0.0 0.0 0.00 0.00 0.00 92 1019.8
20260831092508 59 14 0.0 0.0 0.00 0.00 0.00 92 1019.9
20260831092008 59 14 0.0 0.0 0.00 0.00 0.00 92 1019.8
20260831091535 60 14 0.0 0.0 0.00 0.00 0.00 91 1019.8
20260831091013 60 14 0.0 0.0 0.00 0.00 0.00 91 1019.7
20260831090513 60 14 0.0 0.0 0.00 0.00 0.00 91 1019.6
20260831090029 60 14 0.0 0.0 0.00 0.00 0.00 91 1019.5
20260831085516 60 14 0.0 0.0 0.00 0.00 0.00 91 1019.4
20260831085015 60 14 0.0 0.0 0.00 0.00 0.00 91 1019.4
20260831084527 60 14 0.0 0.0 0.00 0.00 0.00 91 1019.3
20260831084011 60 14 0.0 0.0 0.00 0.00 0.00 91 1019.3
20260831083516 61 14 0.0 0.0 0.00 0.00 0.00 90 1019.2
20260831083031 61 14 0.0 0.0 0.00 0.00 0.00 90 1019.3
20260831082514 61 14 0.0 0.0 0.00 0.00 0.00 90 1019.3
20260831082014 61 14 0.0 0.0 0.00 0.00 0.00 90 1019.3
20260831081536 61 14 0.0 0.0 0.00 0.00 0.00 90 1019.2
20260831081008 61 14 0.0 0.0 0.00 0.00 0.00 90 1019.2
20260831080510 61 14 0.0 0.0 0.00 0.00 0.00 90 1019.2
20260831080052 61 14 0.0 0.0 0.00 0.00 0.00 90 1019.1
20260831075512 62 14 0.0 0.0 0.00 0.00 0.00 90 1019.1
20260831075014 62 14 0.0 0.0 0.00 0.00 0.00 89 1019.0
20260831074531 62 14 0.0 0.0 0.00 0.00 0.00 89 1018.9
20260831074021 62 14 0.0 0.0 0.00 0.00 0.00 89 1018.8
20260831073516 62 14 0.0 0.0 0.00 0.00 0.00 89 1018.9
20260831073056 62 14 0.0 0.0 0.00 0.00 0.00 89 1018.9
20260831072505 62 14 0.0 0.0 0.00 0.00 0.00 89 1018.9
20260831072006 63 14 0.0 0.0 0.00 0.00 0.00 89 1018.9
20260831071512 63 14 0.0 0.0 0.00 0.00 0.00 89 1018.9
20260831071008 63 14 0.0 0.0 0.00 0.00 0.00 89 1018.8
20260831070511 63 14 0.0 0.0 0.00 0.00 0.00 88 1018.9
20260831070024 63 14 0.0 0.0 0.00 0.00 0.00 88 1018.9
20260831065515 63 14 0.0 0.0 0.00 0.00 0.00 88 1018.8
20260831065012 64 14 0.0 0.0 0.00 0.00 0.00 87 1018.7
20260831064526 64 14 0.0 0.0 0.00 0.00 0.00 87 1018.7
20260831064013 64 14 0.0 0.0 0.00 0.00 0.00 87 1018.8
20260831063515 64 14 0.0 0.0 0.00 0.00 0.00 86 1018.9
20260831063035 64 14 0.0 0.0 0.00 0.00 0.00 86 1018.8
20260831062516 65 14 0.0 0.0 0.00 0.00 0.00 85 1018.7
20260831062016 65 14 0.0 0.0 0.00 0.00 0.00 85 1018.8
20260831061532 65 14 0.0 0.0 0.00 0.00 0.00 85 1018.8
20260831061014 65 14 0.0 0.0 0.00 0.00 0.00 84 1018.7
20260831060508 66 14 0.0 0.0 0.00 0.00 0.00 84 1018.6
20260831060019 66 14 0.0 0.0 0.00 0.00 0.00 84 1018.5
20260831055510 66 14 0.0 0.0 0.00 0.00 0.00 83 1018.5
20260831055015 66 14 0.0 0.0 0.00 0.00 0.00 83 1018.5
20260831054520 66 14 0.0 0.0 0.00 0.00 0.00 83 1018.5
20260831054015 67 14 0.0 0.0 0.00 0.00 0.00 82 1018.5
20260831053513 67 14 0.0 0.0 0.00 0.00 0.00 82 1018.4
20260831053029 67 14 0.0 0.0 0.00 0.00 0.00 82 1018.3
20260831052515 67 14 0.0 0.0 0.00 0.00 0.00 81 1018.3
20260831052015 67 14 0.0 0.0 0.00 0.00 0.00 81 1018.4
20260831051535 68 14 0.0 0.0 0.00 0.00 0.00 80 1018.4
20260831051018 68 14 0.0 0.0 0.00 0.00 0.00 80 1018.4
20260831050516 68 14 0.0 0.0 0.00 0.00 0.00 80 1018.3
20260831050034 68 14 0.0 0.0 0.00 0.00 0.00 79 1018.3
20260831045517 68 14 0.0 0.0 0.00 0.00 0.00 79 1018.2
20260831045009 69 14 0.0 0.0 0.00 0.00 0.00 78 1018.1
20260831044516 69 14 0.0 0.0 0.00 0.00 0.00 78 1017.9
20260831044011 69 14 0.0 0.0 0.00 0.00 0.00 77 1017.7
20260831043512 69 14 0.0 0.0 0.00 0.00 0.00 76 1017.6
20260831043028 70 14 0.0 0.0 0.00 0.00 0.00 76 1017.5
20260831042514 70 14 0.0 0.0 0.00 0.00 0.00 76 1017.5
20260831042014 70 14 0.0 0.0 0.00 0.00 0.00 75 1017.5
20260831041530 70 15 0.0 2.0 0.00 0.00 0.00 75 1017.5
20260831041019 70 15 0.0 2.0 0.00 0.00 0.00 75 1017.5
20260831040517 71 336 0.0 2.0 0.00 0.00 0.00 75 1017.5
20260831040032 71 353 0.0 0.0 0.00 0.00 0.00 75 1017.5
20260831035519 71 352 0.0 3.0 0.00 0.00 0.00 75 1017.5
20260831035018 71 312 0.0 3.0 0.00 0.00 0.00 75 1017.5
20260831034533 71 357 0.0 3.0 0.00 0.00 0.00 76 1017.6
20260831034018 71 356 0.0 3.0 0.00 0.00 0.00 76 1017.6
20260831033516 71 356 0.0 3.0 0.00 0.00 0.00 76 1017.7
20260831033034 71 356 0.0 3.0 0.00 0.00 0.00 76 1017.7
20260831032511 71 357 0.0 2.0 0.00 0.00 0.00 77 1017.6
20260831032013 71 347 0.0 0.0 0.00 0.00 0.00 77 1017.6
20260831031525 71 347 0.0 0.0 0.00 0.00 0.00 77 1017.6
20260831031017 71 347 0.0 0.0 0.00 0.00 0.00 78 1017.7
20260831030519 71 347 0.0 0.0 0.00 0.00 0.00 78 1017.8
20260831030031 71 347 0.0 0.0 0.00 0.00 0.00 79 1017.8
20260831025515 71 347 0.0 0.0 0.00 0.00 0.00 80 1017.8
20260831025018 71 347 0.0 0.0 0.00 0.00 0.00 80 1017.7
20260831024534 71 347 0.0 3.0 0.00 0.00 0.00 80 1017.7
20260831024018 71 347 0.0 3.0 0.00 0.00 0.00 80 1017.4
20260831023517 71 178 0.0 0.0 0.00 0.00 0.00 82 1017.5
20260831023034 70 179 0.0 0.0 0.00 0.00 0.00 83 1017.5
20260831022518 70 198 0.0 0.0 0.00 0.00 0.00 84 1017.6
20260831022016 70 198 0.0 0.0 0.00 0.00 0.00 85 1017.5
20260831021541 70 198 0.0 0.0 0.00 0.00 0.00 85 1017.6
20260831021012 70 196 0.0 0.0 0.00 0.00 0.00 86 1017.6
20260831020514 70 196 0.0 0.0 0.00 0.00 0.00 87 1017.6
20260831020028 71 196 0.0 0.0 0.00 0.00 0.00 87 1017.6
20260831015505 71 196 0.0 0.0 0.00 0.00 0.00 87 1017.5
20260831015004 71 196 0.0 0.0 0.00 0.00 0.00 86 1017.5
20260831014511 71 196 0.0 0.0 0.00 0.00 0.00 86 1017.4
20260831014007 71 196 0.0 0.0 0.00 0.00 0.00 86 1017.5
20260831013507 71 196 0.0 0.0 0.00 0.00 0.00 85 1017.4
20260831013016 72 196 0.0 0.0 0.00 0.00 0.00 84 1017.2
20260831012509 72 196 0.0 0.0 0.00 0.00 0.00 83 1017.3
20260831012011 72 196 0.0 0.0 0.00 0.00 0.00 82 1017.2
20260831011535 72 196 0.0 0.0 0.00 0.00 0.00 81 1017.1
20260831011011 73 196 0.0 0.0 0.00 0.00 0.00 81 1017.1
20260831010511 73 196 0.0 0.0 0.00 0.00 0.00 81 1017.1
20260831010026 73 196 0.0 0.0 0.00 0.00 0.00 79 1017.0
20260831005515 73 196 0.0 0.0 0.00 0.00 0.00 76 1017.0
20260831005018 73 196 0.0 0.0 0.00 0.00 0.00 75 1017.0
20260831004534 73 196 0.0 0.0 0.00 0.00 0.00 75 1017.0
20260831004004 73 196 0.0 0.0 0.00 0.00 0.00 74 1016.8
20260831003507 73 196 0.0 0.0 0.00 0.00 0.00 74 1016.7
20260831003014 74 196 0.0 0.0 0.00 0.00 0.00 74 1016.7
20260831002506 74 196 0.0 0.0 0.00 0.00 0.00 74 1016.7
20260831002008 74 196 0.0 0.0 0.00 0.00 0.00 73 1016.6
20260831001532 74 196 0.0 0.0 0.00 0.00 0.00 73 1016.5
20260831001009 74 196 0.0 0.0 0.00 0.00 0.00 72 1016.5
20260831000511 75 196 0.0 0.0 0.00 0.00 0.00 72 1016.3
20260831000026 75 196 0.0 0.0 0.00 0.00 0.00 71 1016.3
20260830235512 75 196 0.0 0.0 0.00 0.00 0.00 70 1016.2
20260830235014 75 195 0.0 0.0 0.00 0.00 0.00 69 1016.3
20260830234530 75 195 0.0 0.0 0.00 0.00 0.00 68 1016.3
20260830234014 75 195 0.0 0.0 0.00 0.00 0.00 68 1016.2
20260830233516 75 195 0.0 1.0 0.00 0.00 0.00 67 1016.1
20260830233029 75 195 0.0 1.0 0.00 0.00 0.00 67 1016.0
20260830232513 76 180 0.0 1.0 0.00 0.00 0.00 67 1016.1
20260830232004 76 179 0.0 1.0 0.00 0.00 0.00 67 1016.1
20260830231512 76 180 0.0 2.0 0.00 0.00 0.00 66 1016.2
20260830231004 76 180 0.0 2.0 0.00 0.00 0.00 66 1016.1
20260830230512 76 138 0.0 1.0 0.00 0.00 0.00 66 1016.2
20260830230018 76 138 0.0 3.0 0.00 0.00 0.00 65 1016.2
20260830225510 76 133 0.0 3.0 0.00 0.00 0.00 65 1016.3
20260830225012 76 157 0.0 2.0 0.00 0.00 0.00 65 1016.3
20260830224524 77 178 0.0 2.0 0.00 0.00 0.00 64 1016.4
20260830224015 77 179 0.0 4.0 0.00 0.00 0.00 64 1016.5
20260830223515 77 150 0.0 4.0 0.00 0.00 0.00 64 1016.5
20260830223031 77 188 0.0 3.0 0.00 0.00 0.00 64 1016.5
20260830222521 77 188 0.0 3.0 0.00 0.00 0.00 63 1016.5
20260830222016 77 199 0.0 2.0 0.00 0.00 0.00 63 1016.5
20260830221533 77 174 0.0 5.0 0.00 0.00 0.00 63 1016.5
20260830221014 77 172 0.0 5.0 0.00 0.00 0.00 63 1016.6
20260830220504 78 189 0.0 3.0 0.00 0.00 0.00 62 1016.6
20260830220018 78 300 0.0 4.0 0.00 0.00 0.00 62 1016.6
20260830215512 78 131 0.0 4.0 0.00 0.00 0.00 63 1016.6
20260830215013 78 171 0.0 1.0 0.00 0.00 0.00 63 1016.6
20260830214521 78 171 0.0 1.0 0.00 0.00 0.00 63 1016.6
20260830214011 78 171 0.0 4.0 0.00 0.00 0.00 63 1016.6
20260830213515 78 171 0.0 4.0 0.00 0.00 0.00 63 1016.6
20260830213030 78 171 0.0 3.0 0.00 0.00 0.00 62 1016.5
20260830212515 78 171 0.0 3.0 0.00 0.00 0.00 62 1016.6
20260830212016 78 172 0.0 2.0 0.00 0.00 0.00 62 1016.7
20260830211531 78 171 0.0 2.0 0.00 0.00 0.00 62 1016.6
20260830211017 78 119 0.0 5.0 0.00 0.00 0.00 62 1016.7
20260830210513 78 195 0.0 5.0 0.00 0.00 0.00 61 1016.8
20260830210035 78 179 0.0 6.0 0.00 0.00 0.00 61 1016.8
20260830205516 79 185 0.0 6.0 0.00 0.00 0.00 61 1016.9
20260830205019 79 171 0.0 4.0 0.00 0.00 0.00 60 1016.9
20260830204530 79 201 0.0 8.0 0.00 0.00 0.00 60 1016.9
20260830204011 79 156 1.0 8.0 0.00 0.00 0.00 59 1016.8
20260830203511 79 160 1.0 7.0 0.00 0.00 0.00 60 1016.8
20260830203028 79 233 0.0 7.0 0.00 0.00 0.00 60 1016.8
20260830202513 79 184 2.0 7.0 0.00 0.00 0.00 59 1017.0
20260830202015 79 141 0.0 4.0 0.00 0.00 0.00 60 1017.0
20260830201530 79 167 0.0 7.0 0.00 0.00 0.00 59 1017.0
20260830201016 79 204 0.0 7.0 0.00 0.00 0.00 60 1017.1
20260830200521 79 136 0.0 5.0 0.00 0.00 0.00 59 1017.1
20260830200032 79 203 1.0 7.0 0.00 0.00 0.00 58 1017.0
20260830195506 80 176 2.0 7.0 0.00 0.00 0.00 58 1017.0
20260830195006 80 138 0.0 6.0 0.00 0.00 0.00 59 1017.1
20260830194502 80 195 0.0 3.0 0.00 0.00 0.00 59 1017.2
20260830194008 80 134 0.0 3.0 0.00 0.00 0.00 59 1017.3
20260830193502 80 120 0.0 3.0 0.00 0.00 0.00 58 1017.4
20260830193005 80 165 0.0 4.0 0.00 0.00 0.00 59 1017.5
20260830192502 80 174 0.0 4.0 0.00 0.00 0.00 58 1017.6
20260830192002 80 152 0.0 5.0 0.00 0.00 0.00 57 1017.7
20260830191504 81 155 0.0 9.0 0.00 0.00 0.00 56 1017.8
20260830191006 81 179 0.0 9.0 0.00 0.00 0.00 56 1017.8
20260830190504 82 126 1.0 8.0 0.00 0.00 0.00 55 1017.8
20260830190008 82 185 0.0 2.0 0.00 0.00 0.00 54 1017.9
20260830185505 82 172 0.0 1.0 0.00 0.00 0.00 54 1017.9
20260830185005 83 124 0.0 3.0 0.00 0.00 0.00 52 1017.9
20260830184512 83 134 0.0 4.0 0.00 0.00 0.00 52 1017.9
20260830184007 83 126 0.0 4.0 0.00 0.00 0.00 52 1018.0
20260830183508 83 168 0.0 0.0 0.00 0.00 0.00 53 1017.9
20260830183019 84 167 0.0 2.0 0.00 0.00 0.00 51 1018.0
20260830182508 84 191 0.0 4.0 0.00 0.00 0.00 52 1018.1
20260830182002 84 125 1.0 4.0 0.00 0.00 0.00 51 1018.1
20260830181504 84 179 0.0 3.0 0.00 0.00 0.00 51 1018.3
20260830181005 84 125 0.0 3.0 0.00 0.00 0.00 52 1018.3
20260830180503 83 53 0.0 2.0 0.00 0.00 0.00 52 1018.4
20260830180004 83 100 0.0 2.0 0.00 0.00 0.00 53 1018.4
20260830175504 82 191 0.0 3.0 0.00 0.00 0.00 56 1018.5
20260830175004 81 276 0.0 6.0 0.00 0.00 0.00 55 1018.6
20260830174506 81 165 0.0 6.0 0.00 0.00 0.00 54 1018.6
20260830174006 81 131 1.0 6.0 0.00 0.00 0.00 54 1018.7
20260830173506 81 149 0.0 4.0 0.00 0.00 0.00 54 1018.8
20260830173014 81 157 1.0 5.0 0.00 0.00 0.00 55 1018.8
20260830172508 81 210 0.0 7.0 0.00 0.00 0.00 54 1019.1
20260830172014 82 123 0.0 7.0 0.00 0.00 0.00 53 1019.1
20260830171522 82 186 0.0 7.0 0.00 0.00 0.00 53 1019.0
20260830171002 82 250 0.0 7.0 0.00 0.00 0.00 52 1018.9
20260830170504 82 180 1.0 6.0 0.00 0.00 0.00 52 1018.8
20260830170005 82 155 1.0 6.0 0.00 0.00 0.00 52 1018.9
20260830165502 82 207 1.0 6.0 0.00 0.00 0.00 53 1019.0
20260830165014 82 317 1.0 6.0 0.00 0.00 0.00 52 1019.0
20260830164511 82 91 1.0 5.0 0.00 0.00 0.00 52 1019.1
20260830164004 82 183 0.0 5.0 0.00 0.00 0.00 54 1019.2
20260830163504 81 181 0.0 4.0 0.00 0.00 0.00 54 1019.3
20260830163014 81 79 0.0 4.0 0.00 0.00 0.00 56 1019.3
20260830162504 80 321 0.0 8.0 0.00 0.00 0.00 55 1019.4
20260830162006 79 144 1.0 8.0 0.00 0.00 0.00 56 1019.3
20260830161515 79 183 1.0 5.0 0.00 0.00 0.00 56 1019.3
20260830161011 79 136 1.0 4.0 0.00 0.00 0.00 56 1019.4
20260830160508 79 160 0.0 5.0 0.00 0.00 0.00 55 1019.4
20260830160024 79 153 1.0 5.0 0.00 0.00 0.00 54 1019.4
20260830155510 79 198 1.0 4.0 0.00 0.00 0.00 54 1019.5
20260830155002 80 87 0.0 4.0 0.00 0.00 0.00 54 1019.4
20260830154506 80 203 0.0 4.0 0.00 0.00 0.00 53 1019.4
20260830154004 80 120 0.0 4.0 0.00 0.00 0.00 53 1019.3
20260830153503 80 110 0.0 5.0 0.00 0.00 0.00 54 1019.3
20260830153020 80 135 0.0 5.0 0.00 0.00 0.00 53 1019.4
20260830152503 80 153 0.0 9.0 0.00 0.00 0.00 52 1019.4
20260830152007 80 143 1.0 9.0 0.00 0.00 0.00 52 1019.5
20260830151529 81 155 1.0 7.0 0.00 0.00 0.00 52 1019.6
20260830151008 81 183 2.0 7.0 0.00 0.00 0.00 51 1019.5
20260830150508 81 226 2.0 4.0 0.00 0.00 0.00 50 1019.6
20260830150016 82 151 0.0 4.0 0.00 0.00 0.00 50 1019.5
20260830145511 82 267 0.0 4.0 0.00 0.00 0.00 51 1019.5
20260830145009 82 163 0.0 5.0 0.00 0.00 0.00 53 1019.5
20260830144528 82 145 0.0 5.0 0.00 0.00 0.00 51 1019.4
20260830144012 82 292 0.0 4.0 0.00 0.00 0.00 53 1019.5
20260830143503 82 310 0.0 3.0 0.00 0.00 0.00 52 1019.6
20260830143008 81 126 0.0 3.0 0.00 0.00 0.00 52 1019.6
20260830142505 81 43 0.0 3.0 0.00 0.00 0.00 56 1019.7
20260830142007 80 193 0.0 5.0 0.00 0.00 0.00 55 1019.7
20260830141510 79 283 0.0 5.0 0.00 0.00 0.00 56 1019.7
20260830141017 78 327 0.0 4.0 0.00 0.00 0.00 57 1019.8
20260830140505 77 134 0.0 5.0 0.00 0.00 0.00 60 1019.8
20260830140014 75 175 2.0 5.0 0.00 0.00 0.00 61 1019.9
20260830135509 74 101 0.0 5.0 0.00 0.00 0.00 64 1020.1
20260830135009 73 341 0.0 5.0 0.00 0.00 0.00 66 1020.1
20260830134523 72 275 0.0 3.0 0.00 0.00 0.00 68 1020.1
20260830134010 72 167 0.0 4.0 0.00 0.00 0.00 69 1020.1
20260830133511 71 165 1.0 4.0 0.00 0.00 0.00 70 1020.1
20260830133026 70 157 0.0 5.0 0.00 0.00 0.00 71 1020.1
20260830132514 69 193 1.0 5.0 0.00 0.00 0.00 73 1020.0
20260830132018 68 143 0.0 3.0 0.00 0.00 0.00 75 1020.1